Location: Beverley
(50.2667°N, 107.9667°W)
Time: 18:10:26
(UTC+00:00)

X-37B - Visible Passes

Search period start: 24 January 2022 00:00
Search period end: 03 February 2022 00:00
Orbit: 334 x 337 km, 45.0° (Epoch: 11 January)

Date Brightness Start Highest point End Pass type
(mag) Time Alt. Az. Time Alt. Az. Time Alt. Az.
29 Jan 2.6 01:33:48 10° SSW 01:35:24 14° SSE 01:35:38 14° SSE visible
30 Jan 2.2 01:53:18 10° SW 01:55:16 21° S 01:55:16 21° S visible
31 Jan 2.8 00:39:14 10° SSW 00:40:50 14° SSE 00:42:26 10° ESE visible
31 Jan 2.4 02:13:18 10° SW 02:14:53 22° SSW 02:14:53 22° SSW visible
01 Feb 2.2 00:58:44 10° SW 01:00:59 21° SSE 01:03:14 10° ESE visible
01 Feb 3.1 02:33:32 10° WSW 02:34:29 17° SW 02:34:29 17° SW visible
02 Feb 1.9 01:18:44 10° SW 01:21:12 27° S 01:22:51 16° SE visible
02 Feb 3.8 02:53:56 10° WSW 02:54:05 11° WSW 02:54:05 11° WSW visible
